COSMOS 1566

Satellite information

Favourite Embed

Satellite Type and Status

PAYLOADIN ORBIT

Key statistics

Satellite COSMOS 1566 at a glance.

Uptime

14960

Days in orbit

Revolutions

≈ 12.6

Per day

Orbit

LEO

Low Earth Orbit

Inclination

74.0

Latest

Satellite identification and parameters

Extended collection of information and parameters for COSMOS 1566.

Object identification

Identified? True

Debris? False

Object name: COSMOS 1566

International designator: 1984-052H

Object number (NORAD): 15005

Object ID (CCSDS): 15005

Country: COMMONWEALTH OF INDEPENDENT STATES (CIS)

Current information (Y/N): Y

RCS size: MEDIUM

Orbital parameters

Period: 114.524 minutes

Inclination: 74.0126 deg

SMA: 7811.932 km

Apoapsis: 1473.86 km

Periapsis: 1393.734 km

RAAN: 212.0573 deg

Eccentricy: 0.0051284

Argument of periapsis: 19.2032 deg

Mean anomaly: 84.1047 deg

Mean motion: 12.57375762 rev/day

Mean motion (dot): 0.00000007 rev/day2

B* drag term: 0.00013646 1/REarth

Two-line elements (TLE)

Creation date: May 12, 2025, 7:41 p.m.

Reference frame: TEME

Reference center: EARTH

Epoch: May 12, 2025, 1:30 p.m. UTC

TLE line 0: 0 COSMOS 1566

TLE line 1: 1 15005U 84052H 25132.56275884 .00000007 00000-0 13646-3 0 9998

TLE line 2: 2 15005 74.0126 212.0573 0051284 19.2032 84.1047 12.57375762879755

Live tracking on map

Real-time ground track for satellite COSMOS 1566.

In-orbit conjunctions

There are no conjunctions computed for COSMOS 1566, at the moment. Check back to stay up to date, as we update our databases every day.

Go to all conjunctions

Associated space launch

Military communications satellites

COSMOS 1566 was lifted into orbit during the mission ‘Kosmos-3M | Strela-1M 281-288’, on board a Kosmos-3M space rocket.

The launch took place on May 28, 1984, 9:52 p.m. from 132/2.

For more information about the launch, click the button.

Launch to space Kosmos-3M | Strela-1M 281-288
Kosmos-3M | Strela-1M 281-288

Agency: N/A

Status: Launch Successful

Launch date: May 28, 1984, 9:52 p.m. UTC

Rocket: Kosmos-3M

Launch pad: 132/2

Location: Plesetsk Cosmodrome, Russian Federation

...

Latest news about this satellite

There are no fresh news available about this satellite. Check back as we update our databases every day.


Newsletter sign-up

Weekly statistics, charts and insights to help you stay on top of the space industry.